Track RADIO ROSTO now! 10-day predictions RADIO ROSTO is classified as:
1 23439U 94085A 25186.43000600 -.00000035 00000-0 21360-3 0 9996 2 23439 64.8147 144.0025 0145967 69.3071 292.3431 11.27581577256806